Regional Weather Roundup
Issued by NWS

Home | Current Version | Previous Version | Text Only | Print | Product List | Glossary Off
Versions: 1 2 3 4 5 6 7 8 9 10 11 12 13 14 15 16 17 18 19 20 21 22 23 24 25 26 27 28 29 30 31 32 33 34 35 36 37 38 39 40 41 42 43 44 45 46 47 48 49 50

863
ASUS44 KJAN 162303
RWRMS

MISSISSIPPI HOURLY WEATHER ROUNDUP
NATIONAL WEATHER SERVICE JACKSON MS
600 PM CDT TUE SEP 16 2014

NOTE: "FAIR: INDICATES FEW OR NO CLOUDS BELOW 12,000 FEET WITH NO
SIGNIFICANT WEATHER AND/OR OBSTRUCTIONS TO VISIBILITY.

MSZ001>002-007>008-010>013-018>021-025>028-034>036-170000-
NORTHWEST MISSISSIPPI

CITY           SKY/WX    TMP DP  RH WIND       PRES   REMARKS
CLARKSDALE     FAIR      81  70  69 N10       30.02S
CLEVELAND      FAIR      87  71  60 N9        29.98S HX  92
GREENWOOD      SUNNY     87  69  54 N5        29.98S HX  91
GREENVILLE     SUNNY     89  65  44 N9        29.97F HX  91
GRENADA        FAIR      82  68  61 N5        29.99F
OLIVE BRANCH   PTSUNNY   73  72  94 N8        30.05S
OXFORD         FAIR      77  68  73 N10       30.04R
TUNICA         PTCLDY    77  66  69 N9        30.03F
$$

MSZ003>006-009-014>017-022>024-029>033-037>039-170000-
NORTHEAST MISSISSIPPI

CITY           SKY/WX    TMP DP  RH WIND       PRES   REMARKS
COLUMBUS AFB   SUNNY     85  66  52 N10       29.98R
CORINTH        CLOUDY    75  66  73 N8        30.03S
STARKVILLE     FAIR      84  66  54 CALM      29.98S
TUPELO         SUNNY     84  70  62 N7        29.99F
$$

MSZ040-058-170000-
CENTRAL MISSISSIPPI

CITY           SKY/WX    TMP DP  RH WIND       PRES   REMARKS
JACKSON INTL   PTSUNNY   85  66  53 N3        29.99S
JACKSON HAWKNS MOSUNNY   85  66  53 CALM      30.00S
MERIDIAN KEY   PTSUNNY   85  64  49 NE7       29.98S
MERIDIAN NAS   MOSUNNY   88  65  46 N5        29.98F HX  90
RAYMOND        FAIR      84  79  84 CALM      29.99S HX  96
VICKSBURG      MOSUNNY   86  68  54 NE7       29.99R
$$

MSZ059>079-170000-
SOUTH MISSISSIPPI

CITY           SKY/WX    TMP DP  RH WIND       PRES   REMARKS
BROOKHAVEN     FAIR      84  72  65 N3        30.01R
HATTIESBURG    PTSUNNY   85  73  67 S10       29.99R HX  91
MCCOMB         CLOUDY    78  73  84 S7        30.00R
NATCHEZ        MOSUNNY   82  72  69 N3        30.00R
PINE BELT      MOSUNNY  N/A N/A N/A CALM      29.99R
$$

MSZ080>082-170000-
COASTAL MISSISSIPPI

CITY           SKY/WX    TMP DP  RH WIND       PRES   REMARKS
BAY ST LOUIS   PTSUNNY   73  70  88 CALM      30.01R
BILOXI         CLOUDY    75  72  88 VRB2      29.98F
PASCAGOULA     CLOUDY    77  72  84 S5        29.99R
GULFPORT       CLOUDY    76  71  85 NW6       29.99S
$$



USA.gov is the U.S. government's official web portal to all federal, state and local government web resources and services.